Погода в Волчанске

Россия / Свердловская область     59°56′05″N   60°04′43″E
темп.,
°C
ветер,
м/с
пор.,
м/с
влажн.,
%
обл.,
%
осадки,
мм/ч
давл.,
гПа
погр.,
м
19 апреля, пн
пн1923:00−4юз11482 0.0 103410
02:00−4ссз114899 0.0 103420
05:00−5с246418 0.0 1036107
08:00−3ссв23645 0.0 1036595
11:000с224391 0.0 10361430
14:00+3с123444 0.0 10341721
17:00+4св133138 0.0 10331890
20:00+1ссз11475 0.0 103316
20 апреля, вт
вт2023:00−2зюз116143 0.0 103316
02:00−2з2361100 0.0 103385
05:00−3з256348 0.0 1032109
08:00+1з374655 0.0 1031459
11:00+6зсз46345 0.0 10291264
14:00+8зсз45345 0.0 10281436
17:00+9сз46370 0.0 10281402
20:00+5зсз37540 0.0 1028240
21 апреля, ср
ср2123:00+1зсз22710 0.0 102925
02:000з22770 0.0 103017
05:00−1з11805 0.0 103010
08:00+4сз11610 0.0 1031173
11:00+9юв11451 0.0 1031907
14:00+12юв11375 0.0 10311435
17:00+12юв22365 0.0 10301519
20:00+8ююв245452 0.0 103171
22 апреля, чт
чт2223:00+5ю25664 0.0 103295
02:00+3ю297663 0.0 1032173
05:00+2ю258388 0.0 1032104
08:00+5ю366394 0.0 1031251
11:00+11ю474094 0.0 1030990
14:00+14ю5834100 0.0 10291710
17:00+14ю5835100 0.0 10291875
20:00+10ю3945100 0.0 1029265
23 апреля, пт
пт2323:00+7ююз3956100 0.0 1029218
02:00+7ююз385698 0.0 1029257
05:00+6юз2571100 0.0 1030221
08:00+6юз357486 0.0 1031641
11:00+7юз3474100 0.0 1031941
14:00+9зюз346799 0.1 10321031
17:00+9з2464100 0.1 10321000
20:00+7сз1178100 0.0 103244